This demonstration page uses our WeatherBlox Daily Observations layout. Learn more.

Hourly Observations for August 2, 2017

Temp ( °F °C ) Dew Point ( °F °C ) Humidity (%) Winds ( mph kmh ) Pressure ( in mb ) Visibility ( mi km ) Precip ( " mm )
12:15 am 00:15 Clear 66 19 58 14.3 74 74 Calm 30.06 1018 10 16.09344 0 0
12:35 am 00:35 Clear 66 18.8 59 14.9 78 78 Calm 30.09 1019 10 16.09344 0 0
12:55 am 00:55 Clear 65 18.2 60 15.5 84 84 Calm 30.06 1018 10 16.09344 0 0
1:15 am 01:15 Clear 64 17.6 60 15.7 89 89 Calm 30.06 1018 10 16.09344 0 0
1:35 am 01:35 Clear 64 17.5 60 15.5 88 88 N 5 7 30.09 1019 10 16.09344 0 0
1:55 am 01:55 Clear 63 17.3 60 15.3 88 88 Calm 30.12 1020 10 16.09344 0 0
2:15 am 02:15 Clear 63 17 60 15.5 91 91 E 3 6 30.12 1020 10 16.09344 0 0
2:35 am 02:35 Clear 62 16.6 59 15.2 92 92 Calm 30.09 1019 10 16.09344 0 0
2:55 am 02:55 Clear 63 17 60 15.3 90 90 Calm 30.09 1019 10 16.09344 0 0
3:15 am 03:15 Clear 61 16.2 59 15 93 93 Calm 30.12 1020 10 16.09344 0 0
3:35 am 03:35 Clear 60 15.8 58 14.7 93 93 NNE 5 7 30.12 1020 10 16.09344 0 0
3:55 am 03:55 Clear 60 15.7 58 14.7 94 94 NE 3 6 30.12 1020 10 16.09344 0 0
4:15 am 04:15 Clear 60 15.5 58 14.5 94 94 Calm 30.12 1020 10 16.09344 0 0
4:35 am 04:35 Clear 59 15.1 57 14.1 94 94 Calm 30.12 1020 10 16.09344 0 0
4:55 am 04:55 Clear 60 15.5 58 14.5 94 94 Calm 30.12 1020 10 16.09344 0 0
5:15 am 05:15 Clear 60 15.3 58 14.5 95 95 Calm 30.12 1020 10 16.09344 0 0
5:35 am 05:35 Clear 59 15.1 57 14.1 94 94 Calm 30.12 1020 10 16.09344 0 0
5:55 am 05:55 Clear 59 15.1 57 14.1 94 94 Calm 30.12 1020 10 16.09344 0 0
6:15 am 06:15 Clear 59 15 57 14 94 94 Calm 30.12 1020 10 16.09344 0 0
6:35 am 06:35 Clear 58 14.6 57 13.7 94 94 Calm 30.12 1020 7 11.265408 0 0
6:55 am 06:55 Sunny 59 15 57 14 94 94 Calm 30.12 1020 7 11.265408 0 0
7:15 am 07:15 Sunny 59 15.2 58 14.4 95 95 WNW 6 9 30.12 1020 7 11.265408 0 0
7:35 am 07:35 Sunny 60 15.8 58 14.7 93 93 Calm 30.12 1020 7 11.265408 0 0
7:55 am 07:55 Sunny 62 16.9 60 15.4 91 91 Calm 30.12 1020 10 16.09344 0 0
8:15 am 08:15 Sunny 64 17.8 61 15.9 89 89 NW 7 11 30.09 1019 10 16.09344 0 0
8:35 am 08:35 Sunny 64 17.9 59 15 83 83 NW 3 6 30.09 1019 10 16.09344 0 0
8:55 am 08:55 Sunny 64 18 60 15.6 86 86 NW 3 6 30.12 1020 10 16.09344 0 0
9:15 am 09:15 Sunny 67 19.2 60 15.7 80 80 NW 6 9 30.12 1020 10 16.09344 0 0
9:35 am 09:35 Sunny 69 20.3 61 16.1 77 77 NW 6 9 30.12 1020 10 16.09344 0 0
9:55 am 09:55 Sunny 70 21.1 62 16.4 75 75 NW 6 9 30.12 1020 10 16.09344 0 0
10:15 am 10:15 Sunny 72 22 59 15.1 65 65 Calm 30.06 1018 10 16.09344 0 0
10:35 am 10:35 Sunny 73 22.9 61 15.9 65 65 Calm 30.06 1018 10 16.09344 0 0
10:55 am 10:55 Sunny 75 23.7 60 15.7 61 61 NW 5 7 30.06 1018 10 16.09344 0 0
11:15 am 11:15 Sunny 75 23.9 59 15.2 58 58 N 3 6 30.06 1018 10 16.09344 0 0
11:35 am 11:35 Sunny 76 24.3 59 15.2 57 57 Calm 30.06 1018 10 16.09344 0 0
11:55 am 11:55 Sunny 76 24.5 58 14.3 53 53 E 3 6 30 1016 10 16.09344 0 0
12:15 pm 12:15 Sunny 77 25.2 60 15.7 56 56 E 5 7 30 1016 10 16.09344 0 0
12:35 pm 12:35 Sunny 78 25.3 57 14.1 50 50 Calm 30 1016 10 16.09344 0 0
12:55 pm 12:55 Sunny 77 25.2 59 14.9 53 53 Calm 30 1016 10 16.09344 0 0
1:15 pm 13:15 Sunny 77 25.1 59 15.2 54 54 Calm 30 1016 10 16.09344 0 0
1:35 pm 13:35 Sunny 78 25.4 58 14.6 51 51 Calm 30 1016 10 16.09344 0 0
1:55 pm 13:55 Sunny 79 26.2 58 14.5 49 49 ESE 3 6 30 1016 10 16.09344 0 0
2:15 pm 14:15 Sunny 79 25.9 60 15.4 52 52 SE 5 7 30 1016 10 16.09344 0 0
2:35 pm 14:35 Sunny 80 26.5 60 15.3 50 50 SE 7 11 30 1016 10 16.09344 0 0
2:55 pm 14:55 Sunny 79 26.2 60 15.4 51 51 S 6 9 30 1016 10 16.09344 0 0
3:15 pm 15:15 Sunny 79 26 62 16.5 56 56 SE 3 6 30 1016 10 16.09344 0 0
3:35 pm 15:35 Sunny 78 25.6 63 17.4 61 61 Calm 30 1016 10 16.09344 0 0
3:55 pm 15:55 Sunny 79 26.2 64 17.7 60 60 SE 3 6 30 1016 10 16.09344 0 0
4:15 pm 16:15 Sunny 80 26.5 62 16.4 54 54 SE 3 6 30 1016 10 16.09344 0 0
4:35 pm 16:35 Sunny 79 26.3 62 16.9 56 56 Calm 30 1016 10 16.09344 0 0
4:55 pm 16:55 Sunny 81 27 62 16.9 54 54 SSE 3 6 30 1016 10 16.09344 0 0
5:15 pm 17:15 Sunny 81 27 62 16.6 53 53 SE 7 11 29.97 1015 10 16.09344 0 0
5:35 pm 17:35 Sunny 80 26.9 64 18 58 58 ESE 9 15 29.94 1014 10 16.09344 0 0
5:55 pm 17:55 Sunny 81 27 62 16.9 54 54 ESE 5 7 29.94 1014 10 16.09344 0 0
6:15 pm 18:15 Sunny 80 26.5 66 18.7 62 62 E 7 11 29.94 1014 10 16.09344 0 0
6:35 pm 18:35 Sunny 79 26 65 18.5 63 63 E 7 11 29.94 1014 10 16.09344 0 0
6:55 pm 18:55 Sunny 77 25 66 18.7 68 68 E 6 9 29.94 1014 10 16.09344 0 0
7:15 pm 19:15 Partly Cloudy 76 24.5 67 19.3 73 73 E 6 9 29.94 1014 10 16.09344 0 0
7:35 pm 19:35 Partly Cloudy 76 24.2 67 19.3 74 74 ENE 5 7 29.97 1015 10 16.09344 0 0
7:55 pm 19:55 Partly Cloudy 75 24 68 20 78 78 E 6 9 29.94 1014 10 16.09344 0 0
8:15 pm 20:15 Sunny 74 23.1 68 19.8 82 82 E 6 9 29.97 1015 10 16.09344 0 0
8:35 pm 20:35 Sunny 73 22.8 67 19.6 82 82 E 5 7 29.97 1015 10 16.09344 0 0
8:55 pm 20:55 Clear 72 22.1 67 19.3 84 84 ENE 5 7 29.97 1015 10 16.09344 0 0
9:15 pm 21:15 Clear 71 21.5 67 19.2 87 87 E 6 9 29.97 1015 10 16.09344 0 0
9:35 pm 21:35 Clear 71 21.5 66 19 86 86 E 5 7 30 1016 10 16.09344 0 0
9:55 pm 21:55 Partly Cloudy 69 20.8 66 19 90 90 E 6 9 30 1016 10 16.09344 0 0
10:15 pm 22:15 Partly Cloudy 69 20.4 65 18.6 89 89 E 6 9 30 1016 10 16.09344 0 0
10:35 pm 22:35 Partly Cloudy with Nearby Thunderstorms 69 20.8 66 18.8 88 88 E 6 9 30 1016 10 16.09344 0 0
10:55 pm 22:55 Mostly Cloudy 70 21.1 66 19 88 88 E 8 13 30 1016 10 16.09344 0 0
11:15 pm 23:15 Mostly Cloudy 70 21 66 19.1 89 89 E 8 13 30 1016 10 16.09344 0 0
11:35 pm 23:35 Mostly Cloudy with Light Rain 71 21.5 67 19.4 88 88 E 9 15 30 1016 10 16.09344 0 0
11:55 pm 23:55 Cloudy with Light Thunderstorms 70 21.2 67 19.5 90 90 NNW 10 17 30.03 1017 7 11.265408 0 0

Powered by AerisWeather